This is the latest recevied weather packets stored in our database for station/object KC3ROS. If no packets are shown the sender has not sent any weather packets the latest 10 day(s).
| Time | Temp. | Humidity | Pressure | Rain* | Wind** | Luminosity | Snow |
|---|---|---|---|---|---|---|---|
| 1777752111 | 5° C | 82% | 1014 hPa | 0 mm | - | 114 W/m² | - |
| 1777751810 | 4.44° C | 82% | 1014.3 hPa | 0 mm | - | 115 W/m² | - |
| 1777751505 | 4.44° C | 81% | 1014.3 hPa | 0 mm | - | 106 W/m² | - |
| 1777751202 | 5° C | 80% | 1014 hPa | 0 mm | - | 74 W/m² | - |
| 1777750899 | 5° C | 80% | 1014.3 hPa | 0 mm | - | 51 W/m² | - |
| 1777750595 | 5° C | 80% | 1014.4 hPa | 0 mm | - | 87 W/m² | - |
| 1777750293 | 5° C | 82% | 1014.4 hPa | 0 mm | - | 130 W/m² | - |
| 1777749988 | 5° C | 81% | 1014.3 hPa | 0 mm | - | 121 W/m² | - |
| 1777749686 | 5° C | 80% | 1014.5 hPa | 0 mm | - | 90 W/m² | - |
| 1777749382 | 5° C | 81% | 1014.3 hPa | 0 mm | - | 116 W/m² | - |
| 1777749080 | 5° C | 82% | 1014.5 hPa | 0 mm | - | 67 W/m² | - |
| 1777748777 | 5° C | 83% | 1014.7 hPa | 0 mm | - | 68 W/m² | - |
| 1777748475 | 5° C | 83% | 1014.7 hPa | 0 mm | - | 72 W/m² | - |
| 1777748169 | 5° C | 84% | 1014.6 hPa | 0 mm | - | 95 W/m² | - |
| 1777747866 | 5.56° C | 85% | 1014.5 hPa | 0 mm | - | 57 W/m² | - |
| 1777747562 | 5° C | 81% | 1014.6 hPa | 0 mm | - | 77 W/m² | - |
| 1777747257 | 5° C | 82% | 1014.7 hPa | 0 mm | - | 122 W/m² | - |
| 1777746954 | 5° C | 85% | 1014.6 hPa | 0 mm | - | 156 W/m² | - |
| 1777746645 | 5° C | 82% | 1014.7 hPa | 0 mm | - | 130 W/m² | - |
| 1777746340 | 5.56° C | 83% | 1014.7 hPa | 0 mm | - | 65 W/m² | - |
| 1777746036 | 5.56° C | 83% | 1014.8 hPa | 0 mm | - | 101 W/m² | - |
| 1777745734 | 5° C | 82% | 1014.7 hPa | 0 mm | - | 201 W/m² | - |
| 1777745433 | 5° C | 84% | 1014.9 hPa | 0 mm | - | 181 W/m² | - |
| 1777745129 | 5° C | 85% | 1014.8 hPa | 0 mm | - | 106 W/m² | - |
| 1777744826 | 5.56° C | 85% | 1014.7 hPa | 0 mm | - | 96 W/m² | - |
* Rain latest hour (hover to see other rain measurements)
** Current wind speed in m/s (hover to see current wind gust speed)